Weather Roundup
Issued by NWS Springfield, MO

Home | Current Version | Previous Version | Text Only | Print | Product List | Glossary On
Versions: 1 2 3 4 5 6 7 8 9 10 11 12 13 14 15 16 17 18 19 20 21 22 23 24 25 26 27 28 29 30 31 32 33 34 35 36 37 38 39 40 41 42 43 44 45 46 47 48 49 50
000
NZUS99 KSGF 130257
HRRSGF

HOURLY WEATHER
NATIONAL WEATHER SERVICE SPRINGFIELD MO
900 PM CST TUE DEC 12 2017

......SGF CWA......

CITY           SKY/WX    TMP DP  RH WIND       PRES   REMARKS
SPRINGFIELD    CLOUDY    27  12  53 SW9       30.10F WCI  18
JOPLIN         CLOUDY    29  19  66 S8        30.12F WCI  21
WEST PLAINS    CLOUDY    29  10  45 W6        30.11F WCI  23
ROLLA          CLOUDY    23   9  55 SW8       30.08F WCI  14
BRANSON        CLEAR     32   7  34 W6        30.14F WCI  26

......SURROUNDING SGF CWA......

CITY           SKY/WX    TMP DP  RH WIND       PRES   REMARKS
CHANUTE        CLEAR     34  26  72 S9        30.08F WCI  27
PARSONS        CLOUDY    28  22  78 CALM      30.12F
COFFEYVILLE    CLOUDY    34  25  69 S7        30.12F WCI  28
EMPORIA        CLEAR     35  27  72 S10       30.03F WCI  27
HARRISON AR    CLOUDY    33  10  38 W5        30.13F WCI  29

......KANSAS AND MISSOURI......

CITY           SKY/WX    TMP DP  RH WIND       PRES   REMARKS
KANSAS CTY INT CLEAR     31  24  75 S10       30.00F WCI  22
SEDALIA        CLOUDY    32  15  49 SW10      30.07F WCI  24
ST JOSEPH      CLEAR     30  24  78 S3        30.00F
ST LOUIS       CLEAR     28   5  37 SW5       30.09F WCI  23
WICHITA        CLEAR     36  27  69 S8        30.05F WCI  30
TOPEKA         CLEAR     37  28  70 S6        30.01F WCI  32
OLATHE         CLEAR     32  24  72 S9        30.03F WCI  24

......TENNESSEE......

CITY           SKY/WX    TMP DP  RH WIND       PRES   REMARKS
MEMPHIS        NOT AVBL
NASHVILLE      CLEAR     31   8  38 NW6       30.13R WCI  25

......ARKANSAS.......

CITY           SKY/WX    TMP DP  RH WIND       PRES   REMARKS
FAYETTEVILLE   CLOUDY    25  17  72 CALM      30.15F
FT SMITH       CLOUDY    38  15  39 S3        30.19F
LITTLE ROCK    CLEAR     41  18  39 SW6       30.18F

......OKLAHOMA.......

CITY           SKY/WX    TMP DP  RH WIND       PRES   REMARKS
TULSA          CLEAR     40  28  62 S6        30.15F
PONCA CITY     CLEAR     40  28  62 S6        30.11F
MCALESTER      CLOUDY    31  23  72 CALM      30.19F
OKLAHOMA CITY  CLEAR     34  26  72 S6        30.14F WCI  29

......IOWA............

CITY           SKY/WX    TMP DP  RH WIND       PRES   REMARKS
DES MOINES     NOT AVBL
QUAD CITIES    CLEAR     24   5  44 SW5       29.99F WCI  18

......ILLINOIS........

CITY           SKY/WX    TMP DP  RH WIND       PRES   REMARKS
QUINCY         NOT AVBL
CHICAGO        CLOUDY    19   9  65 W6        29.98F WCI  11




USA.gov is the U.S. government's official web portal to all federal, state and local government web resources and services.